This is the latest recevied weather packets stored in our database for station/object W1RCY. If no packets are shown the sender has not sent any weather packets the latest 10 day(s).
| Time | Temp. | Humidity | Pressure | Rain* | Wind** | Luminosity | Snow |
|---|---|---|---|---|---|---|---|
| 1777908452 | 16.11° C | 45% | 1005.3 hPa | 0 mm | - | 423 W/m² | - |
| 1777908148 | 16.67° C | 45% | 1005.3 hPa | 0 mm | - | 348 W/m² | - |
| 1777907844 | 16.67° C | 45% | 1005.3 hPa | 0 mm | - | 804 W/m² | - |
| 1777907540 | 16.67° C | 45% | 1005.5 hPa | 0 mm | - | 555 W/m² | - |
| 1777907237 | 16.67° C | 47% | 1005.4 hPa | 0 mm | - | 637 W/m² | - |
| 1777906933 | 16.11° C | 47% | 1005.4 hPa | 0 mm | - | 435 W/m² | - |
| 1777906631 | 16.11° C | 47% | 1005.4 hPa | 0 mm | - | 471 W/m² | - |
| 1777906326 | 16.11° C | 48% | 1005.4 hPa | 0 mm | - | 386 W/m² | - |
| 1777906024 | 16.11° C | 47% | 1005.5 hPa | 0 mm | - | 304 W/m² | - |
| 1777905720 | 15.56° C | 50% | 1005.4 hPa | 0 mm | - | 495 W/m² | - |
| 1777905417 | 15.56° C | 49% | 1005.5 hPa | 0 mm | - | 375 W/m² | - |
| 1777905115 | 15.56° C | 49% | 1005.6 hPa | 0 mm | - | 439 W/m² | - |
| 1777904811 | 15.56° C | 48% | 1005.6 hPa | 0 mm | - | 352 W/m² | - |
| 1777904508 | 15° C | 49% | 1005.9 hPa | 0 mm | - | 301 W/m² | - |
| 1777904205 | 15° C | 51% | 1006 hPa | 0 mm | - | 575 W/m² | - |
| 1777903903 | 15° C | 50% | 1006.3 hPa | 0 mm | - | 334 W/m² | - |
| 1777903599 | 15° C | 52% | 1006 hPa | 0 mm | - | 229 W/m² | - |
| 1777903295 | 14.44° C | 53% | 1006.3 hPa | 0 mm | - | 243 W/m² | - |
| 1777902992 | 13.89° C | 52% | 1006.2 hPa | 0 mm | - | 251 W/m² | - |
| 1777902688 | 13.33° C | 54% | 1006.2 hPa | 0 mm | - | 278 W/m² | - |
| 1777902386 | 13.33° C | 54% | 1006.6 hPa | 0 mm | - | 173 W/m² | - |
| 1777902082 | 13.33° C | 55% | 1006.4 hPa | 0 mm | - | 207 W/m² | - |
| 1777901781 | 13.33° C | 55% | 1006.5 hPa | 0 mm | - | 281 W/m² | - |
| 1777901477 | 12.78° C | 57% | 1006.6 hPa | 0 mm | - | 203 W/m² | - |
| 1777901175 | 12.78° C | 57% | 1006.5 hPa | 0 mm | - | 180 W/m² | - |
* Rain latest hour (hover to see other rain measurements)
** Current wind speed in m/s (hover to see current wind gust speed)